Location: Brachbach
(49.1847°N, 9.7240°E)
Time: 04:01:01
(UTC+00:00)

POLYITAN 1 - Visible Passes

Search period start: 08 March 2026 00:00
Search period end: 18 March 2026 00:00
Orbit: 471 x 484 km, 98.1° (Epoch: 7 March)

Date Brightness Start Highest point End Pass type
(mag) Time Alt. Az. Time Alt. Az. Time Alt. Az.
8 Mar ? 18:22:34 10° SW 18:24:42 15° W 18:26:50 10° NW visible
9 Mar ? 17:54:44 10° SSW 17:57:52 29° W 18:01:01 10° NW visible
11 Mar ? 18:36:50 10° WSW 18:37:57 11° W 18:39:04 10° WNW visible
12 Mar ? 18:08:07 10° SSW 18:10:55 22° W 18:13:43 10° NW visible
15 Mar ? 18:21:07 10° SW 18:23:27 17° W 18:25:47 10° NW visible
16 Mar ? 17:53:01 10° SSW 17:56:14 32° W 17:59:27 10° NNW visible
